Regional Weather Roundup
Issued by NWS Bismarck, ND

Home | Current Version | Previous Version | Text Only | Print | Product List | Glossary On
Versions: 1 2 3 4 5 6 7 8 9 10 11 12 13 14 15 16 17 18 19 20 21 22 23 24 25 26 27 28 29 30 31 32 33 34 35 36 37 38 39 40 41 42 43 44 45 46 47 48 49 50
000
ASUS43 KBIS 061510
RWRBIS

NWR BROADCAST TEXT
NATIONAL WEATHER SERVICE BISMARCK ND
1000 AM CDT WED MAY 06 2015

NOTE: "FAIR" INDICATES FEW OR NO CLOUDS BELOW 12,000 FEET WITH NO
SIGNIFICANT WEATHER AND/OR OBSTRUCTIONS TO VISIBILITY.


CITY           SKY/WX    TMP DP  RH WIND       PRES   REMARKS
WILLISTON      PTSUNNY   62  53  72 S14       29.69F
MINOT          CLOUDY    62  56  80 SE17G25   29.76S
MINOT AFB      CLOUDY    64  64  99 S18       29.75S
BISMARCK       LGT RAIN  60  58  92 E10       29.76F FOG
DICKINSON      CLOUDY    58  54  86 S15       29.72F
GARRISON         N/A     59  58  96 SE10      29.76F
HETTINGER ARPT LGT RAIN  57  54  89 SE12      29.73F FOG
JAMESTOWN      LGT RAIN  57  57 100 SE15      29.83F FOG
BEACH          LGT RAIN  55  55 100 S10       29.73S
CARRINGTON     CLOUDY    55  55 100 SE18      29.84F FOG
CROSBY         FAIR      61  57  88 S17G26    29.69S
HARVEY         CLOUDY    59  59 100 SE13      29.80F FOG
HAZEN          FAIR      59  57  94 SE12      29.76F FOG
LINTON         CLOUDY    59  59 100 SE14G21   29.76F FOG
MANDAN         CLOUDY    57  57 100 E9        29.77F FOG
OAKES            N/A     59  59 100 E15       29.84F FOG
STANLEY        PTSUNNY   57  57 100 S20G28    29.74S FOG
WATFORD CITY   CLOUDY    57  55  94 S14       29.70S
$$

CITY           SKY/WX    TMP DP  RH WIND       PRES   REMARKS
GRAND FORKS    CLOUDY    60  56  86 S16G26    29.89F
GRAND FORKS AF NOT AVBL
DEVILS LAKE    CLOUDY    57  54  88 SE13      29.83F
FARGO          LGT RAIN  59  56  89 SE15G25   29.90F FOG
CANDO          CLOUDY    61  57  88 S20G25    29.83F
CAVALIER       CLOUDY    63  55  77 S15G22    29.87F
GRAFTON        CLOUDY    61  61 100 S16G23    29.90S
GWINNER        CLOUDY    57  57 100 SE20      29.87F
LANGDON          N/A     61  59  94 S17       29.86S
WALHALLA       FAIR      63  63 100 S15       29.87F
$$

CITY           SKY/WX    TMP DP  RH WIND       PRES   REMARKS
ABERDEEN       CLOUDY    65  61  87 SE15      29.81F FOG
MOBRIDGE       LGT RAIN  61  60  97 SE16      29.72F FOG
BUFFALO          N/A     56  54  93 SE10      29.65F
RAPID CITY     LGT RAIN  55  54  96 SE6       29.70F
GLASGOW        CLOUDY    51  46  83 NW14G24   29.76R
SIDNEY         PTSUNNY   61  52  72 S9        29.70R
WOLF POINT     CLOUDY    60  44  55 NW15G24   29.70R
GLENDIVE       CLOUDY    57  46  67 NW8       29.72R
MILES CITY     CLOUDY    56  44  64 N16       29.73S
BAKER          RAIN      55  53  93 S9        29.73R FOG
$$

CITY           SKY/WX    TMP DP  RH WIND       PRES   REMARKS
BILLINGS       CLOUDY    49  39  68 CALM      29.84R
GREAT FALLS    CLOUDY    43  34  70 NW5       29.94R
REGINA         CLOUDY    61  50  67 SW5       29.68F
ESTEVAN        MOSUNNY   63  54  72 S20       29.70S
$$




USA.gov is the U.S. government's official web portal to all federal, state and local government web resources and services.